Overview Statistics Trail Chart Weather Telemetry Raw packets
 

This is the latest recevied weather packets stored in our database for station/object IZ8FMH-11. If no packets are shown the sender has not sent any weather packets the latest 10 day(s).

<< 7 8 9 10 11 12 13 >>
Time Temp. Humidity Pressure Rain* Wind** Luminosity Snow
1788204901 29.44° C 52% 1012.7 hPa - - - -
1788203113 29.44° C 50% 1012.6 hPa - - - -
1788199500 30° C 55% 1012.3 hPa - - - -
1788197700 30.56° C 54% 1012.3 hPa - - - -
1788195901 30.56° C 54% 1012.3 hPa - - - -
1788194100 31.11° C 56% 1012.2 hPa - - - -
1788192300 31.11° C 55% 1012.2 hPa - - - -
1788190500 31.11° C 54% 1012 hPa - - - -
1788188700 31.11° C 53% 1012.4 hPa - - - -
1788186900 31.11° C 53% 1012.3 hPa - - - -
1788185100 30.56° C 55% 1012.1 hPa - - - -
1788183300 30.56° C 55% 1012.2 hPa - - - -
1788181500 30.56° C 57% 1012.2 hPa - - - -
1788179700 30.56° C 59% 1012.4 hPa - - - -
1788177901 30.56° C 60% 1012.5 hPa - - - -
1788176101 30.56° C 60% 1012.5 hPa - - - -
1788174301 30.56° C 61% 1012.5 hPa - - - -
1788172501 30.56° C 60% 1012.7 hPa - - - -
1788170701 30.56° C 61% 1012.7 hPa - - - -
1788168901 30° C 62% 1012.6 hPa - - - -
1788167101 30° C 62% 1012.5 hPa - - - -
1788165300 30° C 62% 1012.1 hPa - - - -
1788163500 29.44° C 64% 1012 hPa - - - -
1788161700 29.44° C 64% 1011.7 hPa - - - -
1788159900 28.89° C 65% 1011.7 hPa - - - -

* Rain since midnight (hover to see other rain measurements)
** Current wind speed in m/s (hover to see current wind gust speed)